Miscellaneous Local Product
Issued by NWS Hastings, NE

Home | Current Version | Previous Version | Graphics & Text | Print | Product List | Glossary On
Versions: 1 2 3 4 5 6 7 8 9 10 11 12 13 14 15 16 17 18 19 20 21 22 23 24 25 26 27 28 29 30 31 32 33 34 35 36 37 38 39 40 41 42 43 44 45 46 47 48 49 50
000
AXUS43 KGID 011502
MISGRI

GID CWA HOURLY WEATHER ROUNDUP
NATIONAL WEATHER SERVICE HASTINGS NE
1000 AM CDT TUE SEP 01 2015

NOTE: "FAIR" INDICATES FEW OR NO CLOUDS BELOW 12,000 FEET WITH NO
SIGNIFICANT WEATHER AND/OR OBSTRUCTIONS TO VISIBILITY.

...SOUTH CENTRAL NEBRASKA...

CITY           SKY/WX    TMP DP  RH WIND       PRES   REMARKS
GRAND ISLAND   PTSUNNY   77  61  57 S14       29.94S
HASTINGS       PTSUNNY   76  63  64 S9        29.95S
KEARNEY        CLOUDY    75  57  53 SW12      29.94S
ORD            CLOUDY    72  61  68 S5        29.91F
YORK           CLOUDY    73  66  78 S9        29.95R
AURORA         PTSUNNY   74  66  74 SW8       29.95S
LEXINGTON      MOSUNNY   74  62  68 S5        29.94S
HOLDREGE       PTSUNNY   76  58  54 SW13G20   29.95R
HEBRON         CLOUDY    75  63  64 S10       29.95F

...NEBRASKA PANHANDLE...

CITY           SKY/WX    TMP DP  RH WIND       PRES   REMARKS
CHADRON        SUNNY     74  49  41 W6        29.92S
ALLIANCE       SUNNY     74  50  42 W8        29.98S
SCOTTSBLUFF    SUNNY     66  53  63 W6        30.00R
SIDNEY         SUNNY     77  51  40 W14       30.03F

...WESTERN AND NORTH CENTRAL NEBRASKA...

CITY           SKY/WX    TMP DP  RH WIND       PRES   REMARKS
VALENTINE      PTSUNNY   69  64  84 W5        29.93S
AINSWORTH      CLOUDY    72  68  86 S8        29.94R
ONEILL         CLOUDY    74  70  86 N7        29.90S
BROKEN BOW     CLOUDY    73  61  65 CALM      29.94R
IMPERIAL       MOSUNNY   70  58  65 W5        29.99S
NORTH PLATTE   MOSUNNY   74  63  68 CALM      29.95S
MCCOOK         SUNNY     75  63  66 VRB3      29.96R

...EASTERN NEBRASKA...

CITY           SKY/WX    TMP DP  RH WIND       PRES   REMARKS
NORFOLK        CLOUDY    76  64  66 SW9       29.91R
SO SIOUX CITY  MOSUNNY   76  67  73 S9        29.90R
TEKAMAH        MOSUNNY   77  69  76 S9        29.92S
COLUMBUS       CLOUDY    73  61  64 SW6       29.94R
ALBION         CLOUDY    72  64  74 S5        29.92S
OMAHA EPPLEY   PTSUNNY   77  69  76 S12       29.95S
OFFUTT AFB     MOSUNNY   76  69  80 S8        29.95S
MILLARD        MOSUNNY   75  69  79 SE5       29.95R
LINCOLN        PTSUNNY   79  66  64 S14       29.95S
NEBRASKA CITY  MOSUNNY   76  65  68 S12       29.97S
BEATRICE       MOSUNNY   77  67  70 S9        29.97R
FALLS CITY     SUNNY     79  68  69 S10G22    29.98S

...NORTHERN KANSAS...

CITY           SKY/WX    TMP DP  RH WIND       PRES   REMARKS
GOODLAND       MOSUNNY   73  61  65 W6        30.03R
HILL CITY      LGT RAIN  74  63  68 SW9       29.96S
NORTON         SUNNY     75  55  50 SW13      29.94S
PHILLIPSBURG   SUNNY     79  64  61 SE10      29.93F
SMITH CENTER   SUNNY     81  61  50 S18       29.96R
HAYS           MOSUNNY   82  59  44 SW21G26   29.95F
RUSSELL        SUNNY     83  60  45 S21G31    29.95S
CONCORDIA      PTSUNNY   77  64  64 S16       29.96S
SALINA         MOSUNNY   81  64  56 S17       29.97F
TOPEKA         SUNNY     80  67  64 S8        30.01S



USA.gov is the U.S. government's official web portal to all federal, state and local government web resources and services.